Temp
28 28 28 28 27 29 28 29 29 29 29 29 28 26 26 26 26 26 25 25 25 26 28 27 27 27 26 26 26 26 25 25 24 23 22 22 22 23 23 23 23 23 22 21
28 29 30 30 28 28 28 29 29 29 29 28 27 26 26 25 26 26 26 26 27 27 27 27 27 27 27 27 27 26 26 25 25 24 23 22 22 23 23 24 23 23 22 21
28 30 31 32 30 29 28 28 29 30 29 28 27 26 26 26 26 25 26 27 27 27 28 27 25 27 27 27 27 27 26 26 26 24 23 22 22 22 23 24 24 24 22 21
29 30 32 31 29 28 29 30 30 29 28 27 26 26 27 26 25 25 25 25 26 25 27 27 26 26 27 28 28 27 26 26 26 24 23 23 23 22 23 23 23 23 23 23
29 30 31 30 30 29 30 30 30 29 26 27 26 25 26 25 26 24 25 25 25 25 25 26 27 28 28 28 28 29 28 25 24 24 24 23 21 20 20 21 23 22 23 23
29 30 32 31 33 30 30 28 26 24 25 25 25 26 26 27 28 26 26 26 26 26 25 26 26 27 27 28 27 28 27 25 24 24 22 20 18 17 17 19 19 20 23 22
30 30 31 32 32 30 28 26 24 26 24 25 23 25 26 28 26 26 26 25 25 24 24 24 24 24 27 26 27 27 26 23 24 25 25 20 20 20 19 19 20 20 21 22
26 28 29 31 31 30 28 27 25 27 25 25 24 25 27 27 26 26 26 25 25 25 24 25 25 23 25 26 26 27 26 26 25 25 21 20 20 19 22 21 21 21 20 21
24 27 30 30 30 30 29 27 26 23 22 25 24 25 27 26 26 26 26 26 25 24 24 23 22 23 24 25 25 26 25 25 24 23 20 21 23 20 21 21 21 20 21 21
27 28 29 32 31 29 30 27 27 22 26 27 25 24 25 27 26 25 26 24 24 24 23 22 21 22 24 25 24 24 23 23 22 21 22 20 22 22 22 21 20 19 20 20
24 26 29 29 29 29 27 27 23 23 22 25 25 25 24 26 25 24 25 24 23 23 23 22 22 22 23 22 21 21 21 22 21 19 19 19 19 19 19 19 19 20 19 19
25 23 26 28 29 29 27 26 24 25 26 21 23 26 28 25 24 24 24 24 23 22 22 21 22 22 21 20 20 21 20 20 20 21 20 20 20 20 19 19 19 19 19 19
25 24 24 27 27 28 30 26 24 21 21 22 25 26 22 23 22 23 24 23 21 21 21 21 20 20 20 20 20 20 20 20 20 21 21 20 19 19 19 19 18 19 19 18
26 21 24 25 27 28 30 28 25 26 24 23 24 28 28 24 23 22 23 24 21 21 21 20 20 19 19 20 19 19 19 20 20 20 20 19 19 19 19 18 18 18 18 18
26 27 24 25 27 29 30 30 26 27 26 28 29 26 30 27 24 23 23 22 22 21 21 20 20 19 19 19 19 20 20 20 20 19 19 18 18 18 18 18 18 18 18 18
22 26 25 29 26 27 29 29 27 27 29 26 28 28 26 23 20 21 23 23 23 22 21 21 20 19 19 19 20 20 20 19 20 19 18 18 18 18 18 18 18 18 17 17
24 22 23 28 28 28 28 29 30 30 28 28 28 28 23 23 23 24 22 23 23 22 22 21 20 19 19 20 20 20 20 20 19 19 18 18 18 18 18 17 17 17 17 16
23 22 21 24 26 28 28 26 27 30 30 27 27 26 24 25 23 22 23 23 23 22 22 21 19 19 20 21 21 20 20 20 19 19 18 19 19 18 17 17 16 16 16 16
22 21 22 25 23 26 31 27 26 27 30 27 26 25 24 23 24 24 22 24 24 23 22 22 21 21 21 21 21 20 19 19 19 18 18 19 18 17 17 16 16 16 15 15
20 19 24 21 27 28 27 26 24 24 26 25 26 24 24 24 25 23 23 24 24 23 23 21 21 21 21 20 21 20 18 18 18 17 17 18 18 17 16 16 15 15 15 15
21 20 23 21 24 25 24 24 23 29 27 22 24 24 24 26 25 24 23 24 25 23 23 21 21 20 20 20 19 18 18 18 18 17 18 17 17 16 16 15 15 15 15 15
23 22 22 20 24 27 23 25 26 23 20 21 22 24 23 24 23 23 23 22 22 21 21 21 20 19 19 19 19 17 17 17 17 17 17 17 16 16 16 16 15 15 15 16
21 20 22 21 23 22 22 22 22 20 19 21 23 24 25 24 23 22 20 21 21 20 20 20 19 17 18 18 19 17 17 17 17 17 16 16 16 15 16 15 15 15 15 15
19 16 18 21 23 20 20 21 20 21 21 21 23 22 23 23 21 20 20 19 19 18 18 17 17 16 16 18 18 19 17 17 17 16 15 15 16 15 15 16 16 16 15 15
18 17 18 18 19 20 21 20 20 21 21 21 23 23 23 21 20 19 17 17 17 17 16 16 16 15 15 17 17 17 17 16 16 15 15 15 15 15 15 16 16 16 15 15
16 18 19 21 20 21 22 22 21 20 21 21 22 22 23 21 19 18 17 16 16 15 15 15 15 14 15 17 16 16 16 16 16 16 15 15 14 15 15 15 15 14 14 14
Height
753 771 779 774 771 766 773 780 781 770 762 769 776 779 772 767 767 770 771 771 769 766 760 764 767 770 771 774 777 779 784 787 792 795 799 800 799 800 802 803 804 807 808 810
768 777 757 755 761 768 773 780 783 772 765 772 778 779 770 766 762 760 762 763 761 759 758 758 760 764 766 768 770 775 777 782 785 789 791 793 794 795 797 799 801 802 804 806
774 760 749 751 761 770 775 781 779 776 770 769 778 783 774 764 761 759 756 754 755 754 753 753 755 755 759 763 766 767 770 776 780 785 790 794 796 795 795 794 796 797 799 801
763 750 751 759 767 768 781 761 762 772 780 802 779 813 779 770 769 762 756 755 749 747 747 749 750 751 752 754 760 765 768 773 778 784 789 790 792 794 796 797 798 795 794 794
765 758 757 764 761 758 767 756 763 770 788 790 793 807 782 770 771 765 755 749 744 739 738 740 742 743 746 752 754 759 764 771 776 782 786 795 803 805 801 801 797 793 791 791
754 741 745 751 742 749 751 767 777 791 797 819 805 804 791 772 759 758 749 740 737 733 734 734 734 739 744 748 753 756 760 767 772 778 789 801 803 800 800 797 796 791 789 790
760 756 744 740 755 752 764 786 825 820 830 828 810 808 782 756 749 746 744 741 739 737 738 735 736 737 739 745 748 753 759 765 769 775 781 788 797 793 791 792 788 786 786 789
787 790 757 742 752 762 770 782 817 827 835 823 804 811 773 746 737 737 734 736 735 734 736 740 738 741 744 748 750 754 757 759 761 767 781 794 793 785 790 783 780 781 784 786
791 781 745 742 738 747 767 786 774 815 824 821 810 789 754 743 744 738 736 735 736 737 741 741 739 742 745 749 751 754 758 757 760 771 778 782 780 778 781 781 777 780 783 785
759 779 749 738 736 746 754 760 791 810 825 825 815 806 790 755 749 742 740 740 738 737 742 744 744 745 746 748 752 754 755 757 763 770 773 775 775 776 779 781 783 784 787 784
755 768 764 750 757 763 769 777 791 796 810 822 824 803 753 743 742 743 740 738 739 738 740 742 745 748 748 750 753 753 756 759 767 774 776 776 777 779 781 785 786 785 785 786
746 770 781 766 743 741 749 764 775 797 802 813 808 790 728 732 734 735 738 738 737 739 740 742 743 746 749 752 753 756 758 764 767 771 773 774 776 780 783 784 788 787 787 787
742 770 793 776 761 749 752 759 768 782 790 807 805 783 739 736 735 732 737 741 743 741 741 741 743 746 749 751 755 758 762 767 769 770 771 775 779 783 786 790 793 791 790 790
721 766 770 789 766 750 752 751 759 766 794 794 786 755 736 738 736 735 731 732 738 739 740 742 744 748 750 752 756 760 764 768 769 771 776 780 782 784 787 790 791 791 791 791
726 752 759 749 743 742 741 744 756 762 761 767 749 759 726 722 725 723 728 730 733 736 740 744 746 748 751 754 757 761 766 767 769 775 779 783 783 785 788 790 792 793 795 794
733 749 749 743 746 748 745 742 745 746 744 752 743 743 716 717 720 725 722 727 732 736 736 737 744 747 748 751 755 762 765 770 773 776 781 784 786 786 788 789 790 791 792 794
737 752 761 758 744 748 763 743 735 729 732 731 747 723 720 720 716 712 717 720 727 729 730 734 739 741 745 751 755 759 764 770 771 774 779 783 785 785 787 791 792 792 793 793
742 752 764 768 755 776 740 724 726 719 716 718 715 713 713 709 711 710 711 717 723 727 732 736 740 743 746 752 756 761 763 767 769 774 781 782 783 786 788 789 790 790 792 793
730 748 766 768 777 757 722 728 735 733 720 706 709 708 708 709 708 715 711 711 713 717 721 727 733 742 747 752 757 761 764 768 772 777 780 779 782 785 787 787 788 789 791 792
736 743 748 775 763 767 737 723 722 728 746 707 704 707 709 707 728 717 706 706 709 713 720 728 733 739 747 752 758 761 765 771 777 780 780 780 783 784 785 787 788 790 791 793
755 758 759 770 764 751 729 724 723 743 740 712 704 705 704 704 696 688 695 703 708 715 723 731 738 739 745 752 759 765 770 775 777 778 780 782 782 785 786 787 789 791 792 792
750 758 761 768 761 753 721 720 730 721 712 708 705 701 704 698 690 691 697 705 711 717 724 728 738 743 747 753 761 768 774 775 776 779 782 784 785 788 788 788 790 791 791 792
758 748 749 749 741 718 716 717 711 712 714 707 702 697 696 701 697 699 701 705 710 715 723 729 736 744 751 757 765 767 771 775 776 780 783 785 787 788 788 790 790 790 790 791
744 745 746 738 720 719 713 708 709 705 705 701 697 695 693 696 700 702 703 707 711 717 724 729 736 747 755 759 766 766 772 776 779 783 784 786 788 788 788 789 790 789 790 790
742 745 741 740 720 715 707 705 704 703 700 696 694 691 693 694 699 705 708 712 719 720 724 732 739 744 751 761 764 770 775 780 783 784 787 787 786 789 789 789 789 789 789 789
736 733 736 729 708 708 706 700 701 702 701 698 696 694 691 692 700 703 707 711 719 728 732 738 741 745 753 760 766 772 778 781 780 780 788 788 789 790 790 789 789 789 789 789
Wind_Speed
4 4 6 6 8 2 4 3 3 2 2 3 4 6 10 8 10 9 9 8 9 13 17 23 29 30 30 32 34 35 34 35 33 31 30 31 33 33 30 28 26 19 21 22
5 3 4 4 4 5 4 3 2 2 2 1 2 7 8 9 9 16 16 13 14 12 11 12 18 25 31 35 38 35 37 34 34 34 33 29 23 27 31 27 25 24 21 22
6 5 3 2 1 3 3 5 5 4 2 1 4 4 4 5 3 6 12 14 15 17 17 14 11 23 26 29 35 39 39 37 35 33 28 23 18 18 18 21 22 21 21 20
5 3 4 2 4 5 2 7 5 7 3 2 3 4 4 3 6 8 8 9 13 15 14 14 13 16 26 33 33 33 33 34 32 28 26 28 23 21 21 22 20 16 13 13
7 6 4 2 5 6 4 6 3 3 4 2 2 3 6 1 4 9 9 12 13 13 14 16 14 24 30 28 31 31 28 27 26 24 23 18 10 16 18 18 21 13 10 13
4 2 2 6 3 8 4 5 7 5 2 3 5 3 6 3 5 4 6 14 14 13 9 11 19 22 22 24 24 23 22 17 20 21 9 10 28 41 33 18 23 22 13 15
2 2 2 3 1 2 6 6 4 3 4 5 4 1 10 6 8 5 8 6 6 5 6 8 7 10 21 15 21 19 13 13 14 14 19 14 15 27 32 18 22 22 18 19
5 6 7 3 8 6 4 7 5 6 3 4 2 5 6 5 6 4 5 6 4 6 4 5 1 8 6 2 8 11 12 17 21 23 17 19 18 24 21 12 12 15 21 21
6 5 3 5 5 7 3 4 5 7 3 2 3 7 10 5 7 8 5 5 5 5 3 5 6 6 8 7 7 2 10 12 12 13 23 21 24 24 28 10 13 14 14 18
7 3 4 2 4 4 4 3 3 3 4 5 4 6 6 5 8 6 5 7 5 2 6 6 5 8 10 8 7 8 13 11 12 14 13 27 20 24 20 12 13 15 7 1
6 4 3 3 5 9 2 1 6 5 4 5 2 6 8 10 10 10 8 7 6 7 1 5 5 6 10 11 15 19 21 19 20 26 25 21 16 12 10 9 8 6 4 4
7 6 5 10 0 1 4 7 6 5 6 2 3 7 3 8 9 10 8 5 4 4 3 5 5 8 10 17 23 24 26 23 20 22 24 24 22 17 13 11 8 8 7 7
8 1 2 9 5 2 3 4 5 5 4 7 6 7 1 2 7 7 9 8 6 7 6 4 4 5 10 19 23 25 25 24 24 25 26 24 22 20 18 15 12 11 10 9
11 4 8 7 8 5 4 4 4 5 4 4 7 9 6 7 9 8 8 6 8 9 10 6 5 5 12 19 23 26 25 25 25 24 24 23 21 19 17 15 14 13 11 10
7 8 7 7 4 4 4 4 8 8 6 6 8 8 15 9 14 15 7 7 7 9 10 8 9 8 13 17 22 23 23 23 23 24 24 23 21 20 17 15 13 12 10 11
3 2 4 3 6 6 4 5 8 7 2 8 4 8 6 1 7 9 12 10 8 7 9 9 8 8 12 17 21 22 21 21 21 23 22 20 18 16 14 11 9 8 8 7
3 5 3 4 2 4 4 7 8 5 5 6 6 9 4 5 9 15 14 14 12 10 10 11 10 9 15 19 23 23 21 20 21 21 19 17 14 13 10 7 7 7 7 6
4 4 2 3 2 2 8 4 7 6 6 8 6 4 8 4 1 5 8 12 10 8 8 7 7 11 16 19 20 21 21 19 19 18 16 13 11 10 8 7 7 7 6 5
2 5 3 4 3 5 2 4 2 3 6 6 6 2 3 6 5 2 6 10 13 13 12 15 20 20 22 22 21 21 18 18 19 17 17 14 10 9 7 6 6 6 5 4
5 6 4 2 4 5 6 1 3 2 6 6 4 7 10 6 5 5 11 12 12 14 16 18 23 23 23 23 22 21 21 21 18 15 13 11 8 7 7 6 5 5 5 4
3 3 3 2 3 6 4 5 3 5 7 6 4 5 10 8 5 6 14 11 12 15 17 17 20 22 23 25 24 21 22 20 16 13 11 9 9 7 6 7 7 5 3 3
4 5 3 3 2 4 4 1 6 4 5 5 6 4 6 5 3 8 10 9 12 12 17 22 19 16 21 25 25 22 20 17 16 12 9 8 6 7 5 5 3 2 4 5
3 5 4 7 5 3 3 5 5 3 5 5 3 2 4 2 3 3 9 11 11 16 18 19 19 19 20 24 25 22 19 19 16 12 10 8 8 6 2 0 2 3 4 6
4 2 2 2 3 7 8 5 6 4 5 7 3 3 3 7 6 6 8 9 10 16 17 23 25 19 20 21 20 21 21 18 14 13 11 8 5 2 1 1 1 2 3 4
3 3 3 6 8 5 7 8 6 4 6 7 4 5 4 7 7 8 8 8 6 15 21 21 23 22 24 22 21 19 18 16 15 12 9 6 6 4 5 4 2 2 2 3
5 6 5 6 6 5 5 2 2 3 4 7 4 3 4 7 7 8 10 13 17 15 19 21 23 27 27 24 21 17 16 15 13 11 8 6 6 4 2 1 2 3 6 6
Wind_Direction
354 84 233 198 211 214 130 172 262 283 226 123 198 192 193 187 198 198 210 213 221 224 220 211 221 225 223 225 228 230 228 231 228 229 231 237 241 247 249 253 257 256 260 254
36 213 229 192 192 194 125 132 272 0 99 131 199 242 220 194 200 196 203 216 225 236 243 234 211 214 218 226 232 230 232 230 230 231 231 231 236 247 251 254 256 260 262 259
155 224 170 161 100 183 140 177 177 189 189 113 297 274 205 247 264 208 216 210 217 225 231 239 229 220 220 222 232 231 234 232 231 232 229 231 239 251 250 249 253 262 260 263
209 243 251 101 239 134 175 199 160 146 104 272 33 290 233 187 231 233 219 213 209 211 218 229 226 222 216 229 234 235 234 233 231 231 234 239 236 238 256 264 270 268 259 264
228 162 143 147 234 165 212 156 154 93 80 32 26 55 271 179 205 237 228 227 225 220 207 212 217 224 226 229 231 233 235 232 227 225 239 253 289 336 314 293 278 267 260 263
199 302 175 197 241 174 114 65 45 53 51 11 324 129 281 238 192 225 236 233 230 224 222 216 214 224 231 231 226 226 227 221 218 218 208 65 52 5 334 336 345 335 304 307
354 209 261 172 262 83 73 65 357 357 13 224 309 32 245 249 242 214 249 269 280 278 263 233 190 205 227 219 221 218 209 184 189 233 206 169 64 29 306 268 314 314 313 303
160 256 162 197 190 202 140 150 167 205 205 259 284 243 256 220 267 244 273 305 280 254 252 343 33 70 85 162 232 237 219 210 219 216 168 146 112 276 255 255 248 255 274 308
139 251 259 209 158 136 175 174 178 106 18 29 241 291 296 214 269 284 295 275 260 273 39 65 79 108 112 83 55 26 199 206 214 194 170 186 228 236 210 212 235 250 286 299
202 171 207 236 89 33 146 156 81 5 136 233 284 283 242 271 236 243 282 253 257 305 99 99 77 91 104 94 70 95 122 131 118 132 158 207 213 197 197 228 261 250 254 328
141 115 264 127 192 176 107 199 49 118 126 167 226 261 222 238 199 186 231 224 237 258 169 164 138 113 92 92 91 95 99 100 107 120 128 134 142 170 196 182 154 135 106 75
199 144 219 218 82 179 147 187 150 136 222 214 176 272 292 235 177 171 196 188 211 209 168 166 161 137 114 103 98 100 105 110 111 107 102 98 99 104 104 98 100 90 83 81
181 188 40 342 358 53 187 180 136 119 99 197 149 262 344 312 160 183 172 168 171 162 133 125 113 108 113 107 108 109 110 114 113 106 100 100 100 99 97 100 96 93 88 82
120 132 158 188 207 160 177 180 158 128 136 168 226 260 247 223 219 186 203 159 146 151 151 156 133 117 113 116 118 118 117 118 113 108 108 109 109 107 104 100 93 85 81 81
135 192 171 228 182 180 204 188 170 190 190 166 255 203 257 223 208 201 162 151 160 157 151 158 141 140 135 126 121 119 119 116 117 121 123 124 118 113 107 97 89 82 70 70
354 210 172 264 153 208 192 262 205 206 210 266 271 272 242 308 116 157 173 175 181 175 157 145 141 144 135 135 133 129 123 126 129 127 124 118 111 101 91 88 79 73 73 71
105 130 100 232 24 132 13 235 220 186 186 168 184 234 186 210 208 187 169 173 175 182 165 159 160 156 150 152 147 144 144 146 137 127 124 124 117 104 87 86 90 81 77 80
120 95 94 180 89 101 237 332 288 213 225 220 271 238 214 216 1 125 156 165 163 156 150 149 146 149 158 163 159 156 155 147 135 131 139 135 124 118 119 107 91 81 80 89
103 128 85 127 168 275 320 19 20 357 269 212 232 164 148 132 78 44 180 179 169 177 175 171 167 169 170 174 172 164 151 152 152 158 159 142 137 129 116 98 84 78 82 81
64 66 112 126 150 197 235 227 125 149 292 358 225 175 158 161 148 229 189 180 180 178 170 152 166 174 172 177 176 169 164 166 166 162 141 125 130 126 110 86 76 79 79 80
11 11 119 141 201 284 240 290 147 143 245 319 282 219 181 195 212 168 171 184 176 156 157 159 164 166 173 180 179 164 170 171 161 144 129 121 116 113 102 88 90 87 61 13
172 145 188 115 133 271 167 151 170 234 289 279 305 231 308 343 123 130 145 137 142 139 144 157 157 153 171 178 176 166 165 158 146 136 120 105 110 130 113 102 96 48 16 4
229 191 185 183 212 223 193 234 271 232 255 288 303 226 143 26 54 111 125 135 144 149 149 147 142 129 157 174 179 156 153 153 146 142 135 131 136 140 124 3 309 306 301 303
249 164 197 11 246 236 250 232 235 224 243 287 233 127 121 142 149 121 128 132 131 130 140 140 134 135 140 160 167 158 154 156 154 151 146 150 154 130 169 235 295 326 319 311
197 122 194 265 279 264 258 244 258 297 303 294 223 165 130 130 125 126 117 109 108 126 129 140 136 136 137 148 143 148 156 163 157 147 145 143 124 120 122 108 52 354 339 337
187 198 173 221 225 156 240 271 306 290 309 312 286 275 170 142 143 139 131 133 126 127 123 129 132 133 138 142 141 149 164 169 153 128 143 134 137 128 137 139 126 109 98 89